Вернуться в каталог

LEGION 6

АктивенНаукаVLEO
NORAD 62901·PAYLOAD·🇺🇸 United States

Запущен Feb 4, 2025 с Cape Canaveral Space Force Station

Loading…

Ближайшие Пролёты (ближайшие 24 часа)

TLE

СвежийSource: Space-Track

Эпоха: Sep 13, 2026, 13:38 UTC

1 62901U 25025B   26256.56825211  .00002988  00000-0  16612-3 0  9999
2 62901  45.0004  96.6510 0011185 260.2678  99.6937 15.16038145 89045

Отслеживайте LEGION 6 в реальном времени с AllMySat

Download on the App Store